[[{"header":{"parameterUnit":"m.s-1","parameterCategory":1,"la1":30.2991,"la2":30.254,"lo1":-89.0895,"lo2":-89.0444,"dy":0.0017,"dx":0.0017,"nx":28,"ny":28,"refTime":"2023-09-07T21:00:00:Z","depth":0,"parameterNumber":2,"parameterNumberName":"U-component_of_WINDS"},"data":[0,0,0,0,0,0,0,0,0,0,0,0,0,0,0,0,0,0,0,0,0,0,0,0,0,0,0,0,0,0,0,0,0,0,0,0,0,0,0,0,0,0,0,0,0,0,0,0,0,0,0,0,0,0,0,0,0,0,0.6527,0.6527,0,0.6527,0.6527,0.6527,0.6568,0.6569,0.657,0.6571,0.657,0.6569,0.6568,0,0,0,0,0,0,0,0,0,0,0,0,0,0.6563,0.6562,0.6527,0.6527,0.6527,0.6527,0.6527,0.6527,0.6568,0.6569,0.657,0.6572,0.657,0.6569,0.6568,0,0,0,0,0,0,0,0,0,0,0,0,0,0.6553,0.6562,0.6527,0.6548,0.6549,0.6527,0.6527,0.6527,0.6568,0.6569,0.6571,0.6572,0.6571,0.6569,0.6568,0.6525,0,0,0.6563,0.6562,0,0,0,0,0,0,0,0,0.6554,0.6552,0.6545,0.6546,0.6548,0.6549,0.6539,0.6526,0.6567,0.6561,0.6571,0.6573,0.6562,0.6561,0.6557,0.6525,0.6525,0.6563,0.6562,0.6561,0.6561,0,0,0,0,0,0,0,0.6555,0.6552,0.6527,0.6544,0.6547,0.6557,0.6557,0.6537,0.6552,0.6561,0.6564,0.6564,0.6563,0.6559,0.6558,0.6525,0.6563,0.6561,0.656,0.656,0.6459,0.6458,0,0,0,0,0,0,0.6552,0.6553,0.6527,0.6527,0.6555,0.6555,0.6555,0.6547,0.6552,0.6555,0.6562,0.6566,0.6561,0.6559,0.6558,0.6508,0.6561,0.656,0.6559,0.6461,0.6459,0.6457,0,0,0,0,0,0,0.6553,0.655,0.6527,0.6541,0.6539,0.6552,0.6543,0.6546,0.6542,0.6553,0.6556,0.6555,0.6562,0.656,0.6533,0.6509,0.6559,0.6557,0.6463,0.646,0.6458,0.6409,0,0,0,0,0,0,0.6554,0.655,0.6534,0.654,0.6538,0.6503,0.6542,0.6545,0.6539,0.6544,0.6547,0.6549,0.6563,0.6535,0.6532,0.6508,0.6556,0.6465,0.6462,0.6459,0.6413,0.6405,0.6399,0,0,0,0,0,0.6555,0.652,0.6533,0.6529,0.6518,0.6501,0.65,0.6516,0.6537,0.6521,0.6529,0.6549,0.6513,0.6532,0.6529,0.6504,0.6467,0.6463,0.6459,0.6416,0.6407,0.6399,0,0,0,0,0,0,0.6509,0.6521,0.6535,0.6501,0.65,0.6508,0.6488,0.6506,0.6498,0.6502,0.6523,0.6524,0.6494,0.6496,0.6518,0.6463,0.6493,0.6488,0.6462,0.6453,0.6446,0.6446,0.6555,0,0,0,0,0,0.6496,0.6481,0.6492,0.6461,0.646,0.6474,0.6467,0.648,0.648,0.6479,0.6485,0.6483,0.6471,0.6463,0.6452,0.6415,0.6416,0.6396,0.6388,0.6382,0.6377,0.6357,0.6348,0.6444,0.6444,0.6444,0,0,0.6466,0.6471,0.646,0.6452,0.6452,0.6437,0.6473,0.6455,0.6443,0.6476,0.6451,0.6455,0.6455,0.6422,0.6408,0.6424,0.6352,0.6377,0.6373,0.6371,0.6352,0.6343,0.6335,0.6441,0.6442,0.6442,0,0,0.6405,0.6407,0.6381,0.6382,0.6382,0.6393,0.6386,0.6392,0.6396,0.6372,0.6396,0.6383,0.6362,0.6361,0.6358,0.6297,0.6316,0.6294,0.6255,0.6235,0.6228,0.6221,0.6199,0.6191,0.6289,0.6289,0.6289,0,0.6368,0.6346,0.6366,0.6346,0.6341,0.6372,0.6346,0.6345,0.6342,0.6338,0.6356,0.6331,0.6333,0.63,0.6285,0.6282,0.6275,0.6292,0.6227,0.6221,0.6215,0.6194,0.6186,0.6286,0.6286,0.6287,0.6287,0,0.63,0.6285,0.6264,0.6261,0.6254,0.6231,0.6248,0.6239,0.6253,0.6261,0.6236,0.624,0.6231,0.6225,0.6238,0.6194,0.6203,0.6224,0.6254,0.6203,0.6183,0.6175,0.6282,0.6283,0.6284,0.6285,0,0,0.6208,0.6218,0.621,0.6209,0.6213,0.62,0.618,0.6171,0.6163,0.616,0.6143,0.6125,0.6145,0.6141,0.6155,0.6137,0.6089,0.616,0.6161,0.6146,0.604,0.6023,0.6013,0.6102,0.61,0.6099,0.6039,0,0.6148,0.6112,0.613,0.6092,0.6078,0.6107,0.6089,0.6089,0.6097,0.6085,0.6094,0.6081,0.6108,0.6106,0.609,0.6098,0.6067,0.6103,0.6085,0.6084,0.6082,0.6003,0.5985,0.5928,0.6032,0.6031,0.603,0,0.6072,0.6067,0.6027,0.6034,0.6029,0.6012,0.6006,0.5996,0.5997,0.6004,0.6,0.6018,0.5998,0.6029,0.6002,0.6025,0.6019,0.6022,0.602,0.6018,0.6052,0.5997,0.5911,0.5901,0.6018,0.6019,0.602,0,0.6007,0.5991,0.5965,0.5963,0.5971,0.5959,0.5961,0.5964,0.5958,0.5954,0.595,0.5943,0.5938,0.5932,0.5948,0.597,0.5918,0.5951,0.5922,0.5922,0.5908,0.5908,0.5818,0.5907,0.5907,0.5907,0.5907,0,0.5937,0.5911,0.5936,0.592,0.5892,0.5914,0.5886,0.5892,0.5894,0.588,0.5906,0.5891,0.5914,0.5902,0.5915,0.5889,0.5887,0.5892,0.5895,0.5888,0.5888,0.5883,0.5887,0.5905,0.5906,0.5906,0.5906,0,0.5859,0.5875,0.5848,0.5858,0.5861,0.5839,0.5848,0.5834,0.5844,0.5825,0.5822,0.5838,0.5825,0.5841,0.583,0.5838,0.5803,0.5813,0.5803,0.5805,0.5775,0.5777,0.5677,0.5665,0.5763,0.5762,0.5761,0,0.5812,0.5793,0.5802,0.5794,0.5795,0.5783,0.5777,0.5798,0.5791,0.5792,0.5777,0.5767,0.576,0.5738,0.5748,0.574,0.5749,0.5715,0.5748,0.5742,0.5747,0.5747,0.5745,0.5707,0.5706,0.5705,0.5704,0,0.5727,0.5736,0.5727,0.5721,0.5714,0.571,0.5708,0.57,0.5722,0.5713,0.5701,0.5695,0.5685,0.5674,0.5668,0.5671,0.5691,0.5694,0.5687,0.5679,0.5673,0.5675,0.5783,0.5696,0.5697,0.5697,0.5698,0.5698,0.5662,0.5647,0.565,0.564,0.5641,0.5639,0.5626,0.5635,0.5625,0.5618,0.5631,0.5615,0.5618,0.5613,0.5613,0.5601,0.5616,0.5606,0.5603,0.5599,0.5594,0.5677,0.5601,0.5601,0.5601,0.5601,0.5601,0,0.5577,0.5581,0.5572,0.5568,0.556,0.5581,0.558,0.5572,0.5558,0.5559,0.5551,0.5537,0.5527,0.5537,0.5529,0.5518,0.5526,0.5515,0.5515,0.5515,0.5582,0.5589,0.5507,0.5507,0.5507,0.5507,0.5508,0.5508,0.5532,0.5507,0.5516,0.5492,0.5497,0.5482,0.5479,0.5478,0.5479,0.5462,0.5454,0.5461,0.5465,0.5458,0.545,0.5453,0.5448,0.5433,0.5439,0.5501,0.551,0.5519,0.5525,0.5432,0.5432,0.5372,0.5372,0.5371]},{"header":{"parameterUnit":"m.s-1","parameterCategory":1,"la1":30.2991,"la2":30.254,"lo1":-89.0895,"lo2":-89.0444,"dy":0.0017,"dx":0.0017,"nx":28,"ny":28,"refTime":"2023-09-07T21:00:00:Z","depth":0,"parameterNumber":3,"parameterNumberName":"V-component_of_WINDS"},"data":[0,0,0,0,0,0,0,0,0,0,0,0,0,0,0,0,0,0,0,0,0,0,0,0,0,0,0,0,0,0,0,0,0,0,0,0,0,0,0,0,0,0,0,0,0,0,0,0,0,0,0,0,0,0,0,0,0,0,-1.0181,-1.018,0,-1.0111,-1.011,-1.0109,-1.011,-1.0111,-1.0112,-1.0113,-1.004,-1.0037,-1.0034,0,0,0,0,0,0,0,0,0,0,0,0,0,-1.0317,-1.0315,-1.0181,-1.018,-1.0179,-1.0111,-1.011,-1.0109,-1.011,-1.0111,-1.0112,-1.0113,-1.0041,-1.0037,-1.0034,0,0,0,0,0,0,0,0,0,0,0,0,0,-1.0254,-1.0314,-1.0181,-1.0171,-1.017,-1.0111,-1.011,-1.0109,-1.011,-1.0111,-1.0112,-1.0114,-1.0042,-1.0038,-1.0033,-0.9979,0,0,-1.0021,-1.0019,0,0,0,0,0,0,0,0,-1.0257,-1.0249,-1.0174,-1.0172,-1.017,-1.0121,-1.0131,-1.0065,-1.0109,-1.0132,-1.0113,-1.0114,-1.0065,-1.0059,-1.0043,-0.9976,-0.9972,-1.002,-1.0018,-1.0016,-1.0015,0,0,0,0,0,0,0,-1.0262,-1.0252,-1.0153,-1.0173,-1.017,-1.0171,-1.0164,-1.0119,-1.0092,-1.0131,-1.013,-1.0122,-1.0065,-1.0047,-1.0041,-0.9971,-1.002,-1.0017,-1.0014,-1.0012,-0.986,-0.9859,0,0,0,0,0,0,-1.0268,-1.0255,-1.0155,-1.0151,-1.0218,-1.0168,-1.0159,-1.0135,-1.0092,-1.0087,-1.0121,-1.0123,-1.0054,-1.0046,-1.0039,-0.9975,-1.0016,-1.0012,-1.0009,-0.9862,-0.986,-0.9858,0,0,0,0,0,0,-1.0271,-1.0259,-1.0158,-1.0203,-1.019,-1.0164,-1.0137,-1.0133,-1.0115,-1.0085,-1.008,-1.0108,-1.0054,-1.0045,-0.9995,-0.9972,-1.001,-1.0006,-0.9863,-0.9861,-0.9859,-0.9846,0,0,0,0,0,0,-1.0275,-1.026,-1.0239,-1.0203,-1.0188,-1.0115,-1.0135,-1.0131,-1.0108,-1.0109,-1.0072,-1.0067,-1.0055,-1.0001,-0.9991,-0.9967,-1.0003,-0.9865,-0.9862,-0.986,-0.9848,-0.9843,-0.9839,0,0,0,0,0,-1.028,-1.0236,-1.0237,-1.0225,-1.016,-1.0114,-1.0105,-1.0093,-1.0106,-1.0085,-1.0066,-1.0068,-0.9976,-0.9996,-0.9984,-0.9959,-0.9867,-0.9863,-0.986,-0.985,-0.9844,-0.9839,0,0,0,0,0,0,-1.0269,-1.0231,-1.0232,-1.0176,-1.0148,-1.0114,-1.0086,-1.0086,-1.0054,-1.0056,-1.0042,-1.0033,-0.9984,-0.9966,-0.9989,-0.9906,-0.9923,-0.9917,-0.992,-0.9914,-0.991,-0.9916,-0.9999,0,0,0,0,0,-1.026,-1.0226,-1.0194,-1.0148,-1.0134,-1.0113,-1.0092,-1.0085,-1.0055,-1.0043,-1.0021,-0.9992,-0.9957,-0.9934,-0.99,-0.9845,-0.9839,-0.9823,-0.9818,-0.9815,-0.981,-0.9783,-0.9776,-0.9847,-0.9847,-0.9847,0,0,-1.0242,-1.0217,-1.0195,-1.0145,-1.0123,-1.0088,-1.0103,-1.0064,-1.0039,-1.0037,-0.999,-0.9973,-0.994,-0.9888,-0.9864,-0.9872,-0.9789,-0.981,-0.9808,-0.9805,-0.9779,-0.9772,-0.9766,-0.9845,-0.9845,-0.9846,0,0,-1.019,-1.0167,-1.0128,-1.0106,-1.0072,-1.0059,-1.005,-1.0016,-1.0005,-0.9957,-0.9957,-0.9926,-0.9865,-0.9843,-0.9824,-0.9768,-0.9769,-0.9757,-0.9734,-0.9708,-0.9703,-0.9698,-0.9681,-0.9674,-0.9753,-0.9753,-0.9752,0,-1.0171,-1.0119,-1.0107,-1.007,-1.0049,-1.0047,-1.0008,-0.9987,-0.9944,-0.993,-0.994,-0.9866,-0.9844,-0.9789,-0.9775,-0.9759,-0.9749,-0.9762,-0.9705,-0.9699,-0.9695,-0.9678,-0.9671,-0.9751,-0.9752,-0.9752,-0.9752,0,-1.0098,-1.0062,-1.0034,-0.9995,-0.9971,-0.9932,-0.9916,-0.9893,-0.9889,-0.9875,-0.9828,-0.9802,-0.9764,-0.975,-0.9745,-0.9695,-0.9701,-0.9708,-0.9725,-0.9687,-0.9672,-0.9665,-0.975,-0.975,-0.9751,-0.9751,0,0,-1.0037,-0.9994,-0.9984,-0.9968,-0.9933,-0.9904,-0.9867,-0.9831,-0.9813,-0.9784,-0.9754,-0.9705,-0.9711,-0.969,-0.9682,-0.9659,-0.962,-0.9669,-0.9668,-0.9663,-0.9567,-0.9564,-0.9557,-0.9621,-0.9619,-0.9618,-0.9571,0,-0.9984,-0.9918,-0.9908,-0.9851,-0.9819,-0.9819,-0.9787,-0.9762,-0.9749,-0.9721,-0.9706,-0.9672,-0.9682,-0.9669,-0.9646,-0.963,-0.9601,-0.9633,-0.9594,-0.9593,-0.9604,-0.9548,-0.9544,-0.95,-0.9564,-0.9563,-0.9562,0,-0.9912,-0.9884,-0.9824,-0.9797,-0.9783,-0.9754,-0.9723,-0.9694,-0.9668,-0.966,-0.9637,-0.9633,-0.9597,-0.9615,-0.9565,-0.9587,-0.9571,-0.956,-0.9558,-0.9555,-0.9576,-0.9546,-0.9485,-0.948,-0.9552,-0.9553,-0.9554,0,-0.9877,-0.9824,-0.9782,-0.9767,-0.9733,-0.9714,-0.9699,-0.9673,-0.9654,-0.9626,-0.9613,-0.9581,-0.9564,-0.954,-0.9528,-0.9542,-0.948,-0.9496,-0.9474,-0.9474,-0.9461,-0.9463,-0.94,-0.9448,-0.9448,-0.9448,-0.9448,0,-0.982,-0.9784,-0.9766,-0.974,-0.9701,-0.969,-0.9652,-0.9637,-0.9615,-0.9588,-0.9585,-0.9559,-0.9544,-0.9517,-0.9507,-0.9469,-0.9461,-0.9455,-0.9453,-0.9456,-0.9457,-0.9446,-0.9449,-0.9446,-0.9447,-0.9447,-0.9447,0,-0.9774,-0.976,-0.9715,-0.9688,-0.968,-0.9653,-0.9629,-0.9605,-0.9593,-0.9558,-0.955,-0.9531,-0.9498,-0.9484,-0.9444,-0.9438,-0.9395,-0.9394,-0.9405,-0.9404,-0.9384,-0.9387,-0.9313,-0.9304,-0.9356,-0.9356,-0.9355,0,-0.9739,-0.9712,-0.9682,-0.9665,-0.9649,-0.962,-0.9601,-0.959,-0.957,-0.9539,-0.9519,-0.9487,-0.9461,-0.941,-0.9393,-0.9363,-0.9363,-0.934,-0.9359,-0.9364,-0.9366,-0.9368,-0.9367,-0.9336,-0.9336,-0.9335,-0.9335,0,-0.968,-0.9675,-0.9648,-0.9619,-0.9596,-0.9572,-0.9549,-0.9535,-0.9521,-0.9499,-0.9467,-0.9447,-0.9407,-0.9376,-0.9346,-0.9331,-0.9332,-0.9329,-0.9323,-0.9326,-0.9334,-0.9332,-0.9397,-0.9331,-0.9332,-0.9332,-0.9332,-0.9332,-0.9639,-0.9617,-0.9594,-0.9564,-0.9546,-0.9525,-0.9502,-0.9488,-0.9462,-0.9429,-0.9425,-0.9391,-0.9368,-0.9328,-0.9312,-0.9286,-0.9292,-0.9282,-0.928,-0.9278,-0.9278,-0.9338,-0.928,-0.928,-0.928,-0.928,-0.928,0,-0.9582,-0.9568,-0.9541,-0.951,-0.9487,-0.949,-0.9466,-0.9447,-0.9418,-0.9396,-0.9371,-0.9336,-0.9307,-0.9289,-0.926,-0.9243,-0.9243,-0.9236,-0.9238,-0.9235,-0.9273,-0.9283,-0.9237,-0.9237,-0.9237,-0.9237,-0.9237,-0.9237,-0.955,-0.9512,-0.9505,-0.946,-0.9446,-0.9414,-0.94,-0.9382,-0.9365,-0.9326,-0.9302,-0.9291,-0.9271,-0.9242,-0.9216,-0.9211,-0.9202,-0.9195,-0.9191,-0.9227,-0.9232,-0.9236,-0.9245,-0.9192,-0.9192,-0.9155,-0.9155,-0.9155]}]]